| time (UTC) | temp C | wind direction | speed KPH | gust KPH | rain 1hr cm | rain 24hr cm | rain mn cm | humidity % | barometer mb |
| 20260502191526 | 12 | 135 | 4.8 | 11.3 | 0.00 | 0.00 | 0.00 | 82 | 1012.0 |
| 20260502190032 | 12 | 232 | 1.6 | 6.4 | 0.00 | 0.00 | 0.00 | 81 | 1012.1 |
| 20260502184537 | 12 | 200 | 1.6 | 8.0 | 0.00 | 0.00 | 0.00 | 82 | 1012.3 |
| 20260502183035 | 12 | 222 | 3.2 | 8.0 | 0.00 | 0.00 | 0.00 | 81 | 1012.3 |
| 20260502181532 | 12 | 207 | 4.8 | 8.0 | 0.00 | 0.00 | 0.00 | 82 | 1012.4 |
| 20260502163016 | 10 | 170 | 0.0 | 3.2 | 0.00 | 0.00 | 0.00 | 87 | 1012.9 |
| 20260502161508 | 10 | 207 | 1.6 | 4.8 | 0.00 | 0.00 | 0.00 | 87 | 1013.0 |
| 20260502151505 | 10 | 214 | 0.0 | 3.2 | 0.00 | 0.00 | 0.00 | 87 | 1013.5 |
| 20260502123058 | 10 | 169 | 0.0 | 3.2 | 0.00 | 0.00 | 0.00 | 88 | 1013.5 |
| 20260502121555 | 9 | 4 | 0.0 | 0.0 | 0.00 | 0.00 | 0.00 | 88 | 1013.3 |
| 20260502114605 | 8 | 205 | 0.0 | 0.0 | 0.00 | 0.00 | 0.00 | 88 | 1013.9 |
| 20260502113051 | 8 | 205 | 0.0 | 0.0 | 0.00 | 0.00 | 0.00 | 88 | 1013.4 |
| 20260502111554 | 8 | 205 | 0.0 | 0.0 | 0.00 | 0.00 | 0.00 | 88 | 1013.5 |
| 20260502110049 | 7 | 205 | 0.0 | 0.0 | 0.00 | 0.00 | 0.00 | 88 | 1013.6 |
| 20260502104551 | 7 | 205 | 0.0 | 0.0 | 0.00 | 0.00 | 0.00 | 88 | 1013.3 |
| 20260502103044 | -17 | 0.0 | 0.0 | 0.00 | 0.00 | 0.00 | 1013.1 | ||
| 20260502101608 | -17 | 0.0 | 0.0 | 0.00 | 0.00 | 0.00 | 1013.2 | ||
| 20260502091523 | 7 | 206 | 0.0 | 0.0 | 0.00 | 0.00 | 0.00 | 87 | 1013.0 |
| 20260502071513 | 8 | 204 | 0.0 | 0.0 | 0.00 | 0.00 | 0.00 | 86 | 1013.0 |
| 20260502070017 | 8 | 272 | 0.0 | 0.0 | 0.00 | 0.00 | 0.00 | 86 | 1013.2 |
| 20260502064514 | 8 | 212 | 0.0 | 0.0 | 0.00 | 0.00 | 0.00 | 86 | 1013.1 |
| 20260502063012 | 8 | 199 | 0.0 | 0.0 | 0.00 | 0.00 | 0.00 | 85 | 1013.1 |
| 20260502061510 | 8 | 207 | 0.0 | 0.0 | 0.00 | 0.00 | 0.00 | 86 | 1013.1 |
| 20260502060012 | 8 | 207 | 0.0 | 0.0 | 0.00 | 0.00 | 0.00 | 84 | 1013.3 |
| 20260502054507 | 8 | 207 | 0.0 | 0.0 | 0.00 | 0.00 | 0.00 | 84 | 1013.4 |
| 20260502053005 | 8 | 228 | 0.0 | 0.0 | 0.00 | 0.00 | 0.00 | 83 | 1013.4 |
| 20260502051502 | 8 | 224 | 0.0 | 0.0 | 0.00 | 0.00 | 0.00 | 82 | 1013.6 |
| 20260502050007 | 8 | 222 | 0.0 | 0.0 | 0.00 | 0.00 | 0.00 | 82 | 1014.0 |
| 20260502044600 | 8 | 263 | 0.0 | 6.4 | 0.00 | 0.00 | 0.00 | 81 | 1013.9 |
| 20260502043105 | 8 | 158 | 1.6 | 8.0 | 0.00 | 0.00 | 0.00 | 82 | 1013.7 |
| 20260502041557 | 8 | 150 | 0.0 | 3.2 | 0.00 | 0.00 | 0.00 | 83 | 1013.8 |
| 20260502040059 | 9 | 222 | 1.6 | 6.4 | 0.00 | 0.00 | 0.00 | 83 | 1013.7 |
| 20260502034553 | 9 | 160 | 0.0 | 4.8 | 0.00 | 0.00 | 0.00 | 83 | 1013.7 |
| 20260502033057 | 9 | 224 | 1.6 | 3.2 | 0.00 | 0.00 | 0.00 | 82 | 1013.9 |
| 20260502031552 | 9 | 222 | 0.0 | 1.6 | 0.00 | 0.00 | 0.00 | 82 | 1013.9 |
| 20260502030058 | 9 | 212 | 0.0 | 3.2 | 0.00 | 0.00 | 0.00 | 82 | 1013.9 |
| 20260502024551 | 9 | 239 | 0.0 | 1.6 | 0.00 | 0.00 | 0.00 | 81 | 1013.7 |
| 20260502023112 | 9 | 229 | 0.0 | 3.2 | 0.00 | 0.00 | 0.00 | 80 | 1013.9 |
| 20260502021550 | 9 | 224 | 0.0 | 1.6 | 0.00 | 0.00 | 0.00 | 79 | 1013.8 |
| 20260502014551 | 10 | 256 | 0.0 | 3.2 | 0.00 | 0.00 | 0.00 | 77 | 1013.8 |
| 20260502013100 | 10 | 259 | 1.6 | 4.8 | 0.00 | 0.00 | 0.00 | 76 | 1013.8 |
| 20260502011548 | 10 | 285 | 1.6 | 8.0 | 0.00 | 0.00 | 0.00 | 76 | 1013.7 |
| 20260502010046 | 10 | 264 | 1.6 | 6.4 | 0.00 | 0.00 | 0.00 | 76 | 1013.7 |
| 20260502004555 | 10 | 224 | 1.6 | 6.4 | 0.00 | 0.00 | 0.00 | 75 | 1013.4 |
| 20260502003044 | 10 | 217 | 1.6 | 6.4 | 0.00 | 0.00 | 0.00 | 74 | 1013.1 |
| 20260502001602 | 10 | 243 | 1.6 | 11.3 | 0.00 | 0.00 | 0.00 | 72 | 1012.9 |
| 20260502000043 | 11 | 345 | 3.2 | 9.7 | 0.00 | 0.00 | 0.00 | 70 | 1012.6 |
| 20260501234544 | 11 | 257 | 3.2 | 17.7 | 0.00 | 0.00 | 0.00 | 69 | 1012.4 |
| 20260501233053 | 12 | 212 | 3.2 | 12.9 | 0.00 | 0.00 | 0.00 | 67 | 1012.1 |
| 20260501231542 | 12 | 232 | 3.2 | 17.7 | 0.00 | 0.00 | 0.00 | 62 | 1011.9 |
| 20260501230041 | 13 | 208 | 4.8 | 17.7 | 0.00 | 0.00 | 0.00 | 56 | 1011.7 |
| 20260501224541 | 14 | 291 | 4.8 | 12.9 | 0.00 | 0.00 | 0.00 | 47 | 1011.7 |
| 20260501223041 | 15 | 304 | 3.2 | 12.9 | 0.00 | 0.00 | 0.00 | 44 | 1011.5 |
| 20260501221540 | 15 | 256 | 3.2 | 8.0 | 0.00 | 0.00 | 0.00 | 43 | 1011.4 |
| 20260501220109 | 15 | 285 | 4.8 | 12.9 | 0.00 | 0.00 | 0.00 | 42 | 1011.4 |
| 20260501214540 | 15 | 221 | 4.8 | 19.3 | 0.00 | 0.00 | 0.00 | 42 | 1011.4 |
| 20260501213039 | 15 | 197 | 3.2 | 9.7 | 0.00 | 0.00 | 0.00 | 41 | 1011.3 |
| 20260501211538 | 15 | 345 | 4.8 | 19.3 | 0.00 | 0.00 | 0.00 | 41 | 1011.3 |
| 20260501210054 | 15 | 283 | 4.8 | 11.3 | 0.00 | 0.00 | 0.00 | 42 | 1011.2 |
| 20260501204542 | 15 | 308 | 4.8 | 17.7 | 0.00 | 0.00 | 0.00 | 42 | 1011.3 |
| 20260501203039 | 15 | 224 | 9.7 | 22.5 | 0.00 | 0.00 | 0.00 | 42 | 1011.2 |
| 20260501201540 | 15 | 200 | 6.4 | 17.7 | 0.00 | 0.00 | 0.00 | 44 | 1011.3 |
| 20260501200034 | 14 | 284 | 6.4 | 17.7 | 0.00 | 0.00 | 0.00 | 46 | 1011.4 |
| 20260501194537 | 14 | 304 | 8.0 | 16.1 | 0.00 | 0.00 | 0.00 | 45 | 1011.4 |
| 20260501193040 | 15 | 181 | 4.8 | 12.9 | 0.00 | 0.00 | 0.00 | 46 | 1011.7 |